VK2HIM-1 Weather Reports


time (UTC)temp
F
wind
direction
speed
knots
gust
knots
rain 1hr
in
rain 24hr
in
rain mn
in
humidity
%
barometer
mb
20260509133348 54 218 0.0 0.0 0.00 0.00 0.00 84 1026.2
20260509130348 55 218 0.0 0.0 0.00 0.00 0.00 84 1026.3
20260509123348 54 218 0.0 0.0 0.00 0.00 0.00 84 1026.4
20260509120348 54 218 0.0 0.0 0.00 0.00 0.00 85 1026.5
20260509113348 54 218 0.0 0.0 0.00 0.00 0.00 85 1026.5
20260509110348 54 218 0.0 0.0 0.00 0.00 0.00 85 1026.3
20260509103348 55 218 0.0 0.0 0.00 0.00 0.00 85 1026.2
20260509100348 55 218 0.0 0.0 0.00 0.00 0.00 85 1026.0
20260509093348 55 106 0.0 0.0 0.00 0.00 0.00 84 1025.8
20260509090346 56 106 0.0 0.0 0.00 0.00 0.00 82 1025.5
20260509083346 57 106 0.0 0.0 0.00 0.00 0.00 81 1025.3
20260509080346 58 106 0.0 0.9 0.00 0.00 0.00 78 1024.9
20260509073346 61 106 0.0 0.0 0.00 0.00 0.00 73 1024.5
20260509070345 64 106 0.0 0.0 0.00 0.00 0.00 68 1024.1
20260509063345 68 106 0.0 0.9 0.00 0.00 0.00 66 1023.9
20260509060349 69 95 0.9 0.9 0.00 0.00 0.00 62 1023.7
20260509053349 71 67 0.9 1.7 0.00 0.00 0.00 62 1023.5
20260509050349 72 332 0.9 2.6 0.00 0.00 0.00 60 1023.4
20260509043349 72 23 0.0 0.9 0.00 0.00 0.00 59 1023.4
20260509040349 70 8 0.0 0.0 0.00 0.00 0.00 61 1023.4
20260509033349 70 233 0.0 0.9 0.00 0.00 0.00 63 1023.6
20260509030349 70 30 0.0 2.6 0.00 0.00 0.00 63 1023.7
20260509023348 69 162 0.9 1.7 0.00 0.00 0.00 64 1024.1
20260509020348 69 223 1.7 2.6 0.00 0.00 0.00 63 1024.5
20260509013348 68 212 1.7 2.6 0.00 0.00 0.00 63 1024.9
20260509010348 67 210 1.7 2.6 0.00 0.00 0.00 62 1025.3
20260509003348 66 221 2.6 4.3 0.00 0.00 0.00 64 1025.4
20260509000348 65 210 2.6 5.2 0.00 0.00 0.00 63 1025.4
20260508233347 64 227 2.6 4.3 0.00 0.00 0.00 67 1025.2
20260508230347 63 252 2.6 4.3 0.00 0.00 0.00 70 1025.2
20260508223346 60 233 1.7 2.6 0.00 0.00 0.00 73 1025.0
20260508220346 55 233 0.9 1.7 0.00 0.00 0.00 80 1024.8
20260508213346 53 232 0.9 1.7 0.00 0.00 0.00 79 1024.5
20260508210346 55 215 0.0 0.0 0.00 0.00 0.00 77 1024.1
20260508203346 54 216 0.0 2.6 0.00 0.00 0.00 76 1023.8
20260508200346 55 236 0.9 2.6 0.00 0.00 0.00 76 1023.4
20260508193346 55 232 0.9 1.7 0.00 0.00 0.00 77 1022.9
20260508190347 55 221 1.7 2.6 0.00 0.00 0.00 77 1022.7
20260508183346 56 231 2.6 2.6 0.00 0.00 0.00 75 1022.4
20260508180346 57 234 1.7 2.6 0.00 0.00 0.00 74 1022.1
20260508173346 58 242 2.6 2.6 0.00 0.00 0.00 74 1022.0
20260508170346 58 208 2.6 2.6 0.00 0.00 0.00 73 1022.1
20260508163345 58 214 1.7 2.6 0.00 0.00 0.00 72 1022.0
20260508160345 58 230 2.6 2.6 0.00 0.00 0.00 72 1021.8
20260508153345 58 294 2.6 4.3 0.00 0.00 0.00 73 1021.8
20260508150350 59 272 1.7 5.2 0.00 0.00 0.00 72 1022.0
20260508143347 59 348 4.3 7.0 0.00 0.00 0.00 72 1021.5
20260508140347 59 291 2.6 4.3 0.00 0.00 0.00 73 1021.7